Time,TemperatureF,DewpointF,PressureIn,WindDirection,WindDirectionDegrees,WindSpeedMPH,WindSpeedGustMPH,Humidity,HourlyPrecipIn,Conditions,Clouds,dailyrainin,SoftwareType,DateUTC
2013-02-25 00:00:00,46.9,35.4,29.91,SW,232,0.0,0.0,64,0.00,,---,0.00,VWS V14.01,2013-02-25 08:00:00,
2013-02-25 00:05:00,46.9,35.4,29.91,SW,234,0.0,0.0,64,0.00,,---,0.00,VWS V14.01,2013-02-25 08:05:00,
2013-02-25 00:09:00,46.9,35.4,29.91,WNW,292,0.0,0.0,64,0.00,,---,0.00,VWS V14.01,2013-02-25 08:09:00,
2013-02-25 00:14:00,46.6,36.2,29.91,WNW,293,0.0,0.0,67,0.00,,---,0.00,VWS V14.01,2013-02-25 08:14:00,
2013-02-25 00:19:00,46.6,36.2,29.91,West,259,2.2,5.8,67,0.00,,---,0.00,VWS V14.01,2013-02-25 08:19:00,
2013-02-25 00:24:00,46.2,36.6,29.91,West,276,4.9,4.9,69,0.00,,---,0.00,VWS V14.01,2013-02-25 08:24:00,
2013-02-25 00:30:00,46.0,36.5,29.91,West,273,2.7,2.7,69,0.00,,---,0.00,VWS V14.01,2013-02-25 08:30:00,
2013-02-25 00:34:00,45.5,36.3,29.91,West,275,5.4,5.4,70,0.00,,---,0.00,VWS V14.01,2013-02-25 08:34:00,
2013-02-25 00:39:00,45.1,36.3,29.91,West,263,0.0,0.0,71,0.00,,---,0.00,VWS V14.01,2013-02-25 08:39:00,
2013-02-25 00:44:00,45.0,36.1,29.91,West,271,2.7,2.7,71,0.00,,---,0.00,VWS V14.01,2013-02-25 08:44:00,
2013-02-25 00:49:00,44.6,36.5,29.91,SW,225,0.0,0.0,73,0.00,,---,0.00,VWS V14.01,2013-02-25 08:49:00,
2013-02-25 00:54:00,44.4,36.3,29.91,West,263,0.0,0.0,73,0.00,,---,0.00,VWS V14.01,2013-02-25 08:54:00,
2013-02-25 00:59:00,44.2,36.5,29.91,West,263,0.0,0.0,74,0.00,,---,0.00,VWS V14.01,2013-02-25 08:59:00,
2013-02-25 01:04:00,44.1,36.7,29.88,SE,145,0.0,0.0,75,0.00,,---,0.00,VWS V14.01,2013-02-25 09:04:00,
2013-02-25 01:09:00,43.9,36.5,29.88,SE,145,0.0,0.0,75,0.00,,---,0.00,VWS V14.01,2013-02-25 09:09:00,
2013-02-25 01:14:00,43.7,36.3,29.88,SE,127,0.0,0.0,75,0.00,,---,0.00,VWS V14.01,2013-02-25 09:14:00,
2013-02-25 01:19:00,43.7,36.3,29.88,East,100,0.0,0.0,75,0.00,,---,0.00,VWS V14.01,2013-02-25 09:19:00,
2013-02-25 01:24:00,43.7,36.6,29.88,East,100,0.0,0.0,76,0.04,,---,0.04,VWS V14.01,2013-02-25 09:24:00,
2013-02-25 01:29:00,43.7,36.6,29.88,East,100,0.0,0.0,76,0.04,,---,0.04,VWS V14.01,2013-02-25 09:29:00,
2013-02-25 01:34:00,43.5,36.8,29.88,East,100,0.0,0.0,77,0.04,,---,0.04,VWS V14.01,2013-02-25 09:34:00,
2013-02-25 01:39:00,43.5,36.8,29.88,East,100,0.0,0.0,77,0.04,,---,0.04,VWS V14.01,2013-02-25 09:39:00,
2013-02-25 01:44:00,43.5,36.8,29.88,East,100,0.0,0.0,77,0.04,,---,0.04,VWS V14.01,2013-02-25 09:44:00,
2013-02-25 01:49:00,43.5,37.1,29.88,East,100,0.0,0.0,78,0.04,,---,0.04,VWS V14.01,2013-02-25 09:49:00,
2013-02-25 01:54:00,43.3,37.0,29.88,East,100,0.0,0.0,78,0.04,,---,0.04,VWS V14.01,2013-02-25 09:54:00,
2013-02-25 01:59:00,43.3,37.0,29.88,East,100,0.0,0.0,78,0.04,,---,0.04,VWS V14.01,2013-02-25 09:59:00,
2013-02-25 02:04:00,43.3,37.0,29.88,East,100,0.0,0.0,78,0.04,,---,0.04,VWS V14.01,2013-02-25 10:04:00,
2013-02-25 02:09:00,43.3,37.0,29.88,East,100,0.0,0.0,78,0.04,,---,0.04,VWS V14.01,2013-02-25 10:09:00,
2013-02-25 02:14:00,43.3,37.3,29.88,East,100,0.0,0.0,79,0.04,,---,0.04,VWS V14.01,2013-02-25 10:14:00,
2013-02-25 02:19:00,43.3,37.3,29.88,East,100,0.0,0.0,79,0.04,,---,0.04,VWS V14.01,2013-02-25 10:19:00,
2013-02-25 02:24:00,43.2,37.1,29.88,East,100,0.0,0.0,79,0.00,,---,0.04,VWS V14.01,2013-02-25 10:24:00,
2013-02-25 02:29:00,43.2,37.1,29.88,East,100,0.0,0.0,79,0.00,,---,0.04,VWS V14.01,2013-02-25 10:29:00,
2013-02-25 02:34:00,43.2,37.4,29.88,East,100,0.0,0.0,80,0.00,,---,0.04,VWS V14.01,2013-02-25 10:34:00,
2013-02-25 02:39:00,43.2,37.4,29.88,East,100,0.0,0.0,80,0.04,,---,0.08,VWS V14.01,2013-02-25 10:39:00,
2013-02-25 02:44:00,43.2,37.7,29.88,East,100,0.0,0.0,81,0.04,,---,0.08,VWS V14.01,2013-02-25 10:44:00,
2013-02-25 02:49:00,43.2,37.7,29.85,East,100,0.0,0.0,81,0.04,,---,0.08,VWS V14.01,2013-02-25 10:49:00,
2013-02-25 02:54:00,43.2,37.7,29.85,South,173,0.0,0.0,81,0.04,,---,0.08,VWS V14.01,2013-02-25 10:54:00,
2013-02-25 02:59:00,43.0,37.9,29.85,SE,146,0.0,0.0,82,0.04,,---,0.08,VWS V14.01,2013-02-25 10:59:00,
2013-02-25 03:04:00,43.0,37.9,29.85,SSW,203,0.0,0.0,82,0.04,,---,0.08,VWS V14.01,2013-02-25 11:04:00,
2013-02-25 03:09:00,43.0,38.2,29.85,West,269,0.0,0.0,83,0.04,,---,0.08,VWS V14.01,2013-02-25 11:09:00,
2013-02-25 03:14:00,43.0,38.5,29.85,SSW,197,3.6,3.6,84,0.04,,---,0.08,VWS V14.01,2013-02-25 11:14:00,
2013-02-25 03:19:00,43.0,38.5,29.85,West,277,0.0,0.0,84,0.04,,---,0.08,VWS V14.01,2013-02-25 11:19:00,
2013-02-25 03:24:00,43.2,38.7,29.85,West,278,0.0,0.0,84,0.04,,---,0.08,VWS V14.01,2013-02-25 11:24:00,
2013-02-25 03:29:00,43.2,38.7,29.85,WSW,256,0.0,0.0,84,0.04,,---,0.08,VWS V14.01,2013-02-25 11:29:00,
2013-02-25 03:34:00,43.2,39.0,29.88,SE,138,0.0,5.4,85,0.04,,---,0.08,VWS V14.01,2013-02-25 11:34:00,
2013-02-25 03:39:00,43.2,39.0,29.88,West,260,0.0,0.0,85,0.00,,---,0.08,VWS V14.01,2013-02-25 11:39:00,
2013-02-25 03:44:00,43.2,39.3,29.88,SSW,202,0.0,0.0,86,0.00,,---,0.08,VWS V14.01,2013-02-25 11:44:00,
2013-02-25 03:49:00,43.3,39.4,29.88,NW,308,5.8,5.8,86,0.00,,---,0.08,VWS V14.01,2013-02-25 11:49:00,
2013-02-25 03:54:00,43.3,39.4,29.88,WNW,282,3.1,3.1,86,0.00,,---,0.08,VWS V14.01,2013-02-25 11:54:00,
2013-02-25 03:59:00,43.3,39.7,29.88,WSW,256,3.1,3.1,87,0.00,,---,0.08,VWS V14.01,2013-02-25 11:59:00,
2013-02-25 04:04:00,43.3,39.7,29.88,South,173,4.0,4.0,87,0.00,,---,0.08,VWS V14.01,2013-02-25 12:04:00,
2013-02-25 04:09:00,43.3,40.3,29.88,NW,305,2.7,2.7,89,0.00,,---,0.08,VWS V14.01,2013-02-25 12:09:00,
2013-02-25 04:14:00,43.3,40.3,29.88,West,279,4.0,4.0,89,0.00,,---,0.08,VWS V14.01,2013-02-25 12:14:00,
2013-02-25 04:19:00,43.3,40.3,29.88,WSW,252,5.4,5.4,89,0.00,,---,0.08,VWS V14.01,2013-02-25 12:19:00,
2013-02-25 04:24:00,43.3,40.6,29.88,SSW,200,5.8,5.8,90,0.00,,---,0.08,VWS V14.01,2013-02-25 12:24:00,
2013-02-25 04:29:00,43.3,40.6,29.88,WSW,251,3.6,3.6,90,0.00,,---,0.08,VWS V14.01,2013-02-25 12:29:00,
2013-02-25 04:34:00,43.3,40.6,29.88,West,281,6.3,6.3,90,0.00,,---,0.08,VWS V14.01,2013-02-25 12:34:00,
2013-02-25 04:39:00,43.3,40.6,29.88,SE,144,4.9,4.9,90,0.00,,---,0.08,VWS V14.01,2013-02-25 12:39:00,
2013-02-25 04:44:00,43.3,40.9,29.88,West,266,3.1,3.1,91,0.00,,---,0.08,VWS V14.01,2013-02-25 12:44:00,
2013-02-25 04:49:00,43.3,40.9,29.88,South,191,2.2,2.2,91,0.00,,---,0.08,VWS V14.01,2013-02-25 12:49:00,
2013-02-25 04:54:00,43.3,40.9,29.88,West,277,3.1,3.6,91,0.00,,---,0.08,VWS V14.01,2013-02-25 12:54:00,
2013-02-25 04:59:00,43.3,40.9,29.88,WSW,252,3.1,3.1,91,0.00,,---,0.08,VWS V14.01,2013-02-25 12:59:00,
2013-02-25 05:04:00,43.3,40.9,29.88,SSW,207,2.2,2.2,91,0.00,,---,0.08,VWS V14.01,2013-02-25 13:04:00,
2013-02-25 05:09:00,43.3,41.2,29.88,SSW,212,0.0,0.0,92,0.00,,---,0.08,VWS V14.01,2013-02-25 13:09:00,
2013-02-25 05:14:00,43.3,41.2,29.88,SW,229,2.7,2.7,92,0.00,,---,0.08,VWS V14.01,2013-02-25 13:14:00,
2013-02-25 05:19:00,43.3,41.2,29.88,SSW,211,2.7,2.7,92,0.00,,---,0.08,VWS V14.01,2013-02-25 13:19:00,
2013-02-25 05:24:00,43.3,41.2,29.88,WNW,287,4.0,4.0,92,0.00,,---,0.08,VWS V14.01,2013-02-25 13:24:00,
2013-02-25 05:29:00,43.3,41.2,29.88,WSW,250,0.0,0.0,92,0.00,,---,0.08,VWS V14.01,2013-02-25 13:29:00,
2013-02-25 05:34:00,43.3,41.2,29.91,NW,313,3.1,8.1,92,0.00,,---,0.08,VWS V14.01,2013-02-25 13:34:00,
2013-02-25 05:39:00,43.3,41.2,29.91,SSW,210,0.0,0.0,92,0.00,,---,0.08,VWS V14.01,2013-02-25 13:39:00,
2013-02-25 05:44:00,43.3,41.2,29.91,ENE,72,2.7,2.7,92,0.00,,---,0.08,VWS V14.01,2013-02-25 13:44:00,
2013-02-25 05:49:00,43.3,41.2,29.88,SW,223,0.0,0.0,92,0.00,,---,0.08,VWS V14.01,2013-02-25 13:49:00,
2013-02-25 05:54:00,43.3,41.2,29.88,WSW,239,0.0,4.9,92,0.00,,---,0.08,VWS V14.01,2013-02-25 13:54:00,
2013-02-25 05:59:00,43.3,41.2,29.88,SW,230,0.0,0.0,92,0.00,,---,0.08,VWS V14.01,2013-02-25 13:59:00,
2013-02-25 06:04:00,43.3,41.2,29.91,SW,230,0.0,0.0,92,0.00,,---,0.08,VWS V14.01,2013-02-25 14:04:00,
2013-02-25 06:09:00,43.3,41.2,29.91,WSW,251,3.6,6.3,92,0.00,,---,0.08,VWS V14.01,2013-02-25 14:09:00,
2013-02-25 06:15:00,43.3,41.2,29.91,West,259,0.0,0.0,92,0.00,,---,0.08,VWS V14.01,2013-02-25 14:15:00,
2013-02-25 06:19:00,43.3,41.2,29.91,East,96,0.0,0.0,92,0.00,,---,0.08,VWS V14.01,2013-02-25 14:19:00,
2013-02-25 06:24:00,43.3,41.2,29.91,WNW,283,2.2,2.2,92,0.00,,---,0.08,VWS V14.01,2013-02-25 14:24:00,
2013-02-25 06:29:00,43.3,41.2,29.91,WSW,253,5.4,5.4,92,0.00,,---,0.08,VWS V14.01,2013-02-25 14:29:00,
2013-02-25 06:34:00,43.3,41.2,29.91,West,280,5.4,5.4,92,0.00,,---,0.08,VWS V14.01,2013-02-25 14:34:00,
2013-02-25 06:40:00,43.3,41.2,29.91,NW,319,3.1,3.1,92,0.00,,---,0.08,VWS V14.01,2013-02-25 14:40:00,
2013-02-25 06:45:00,43.3,41.2,29.91,WNW,289,8.3,8.3,92,0.00,,---,0.08,VWS V14.01,2013-02-25 14:45:00,
2013-02-25 06:50:00,43.3,41.2,29.91,NW,304,4.0,4.0,92,0.00,,---,0.08,VWS V14.01,2013-02-25 14:50:00,
2013-02-25 06:55:00,43.3,41.2,29.91,West,268,3.1,3.1,92,0.00,,---,0.08,VWS V14.01,2013-02-25 14:55:00,
2013-02-25 07:00:00,43.3,41.2,29.91,NW,305,2.7,2.7,92,0.00,,---,0.08,VWS V14.01,2013-02-25 15:00:00,
2013-02-25 07:05:00,43.3,41.2,29.91,WSW,240,0.0,0.0,92,0.00,,---,0.08,VWS V14.01,2013-02-25 15:05:00,
2013-02-25 07:10:00,43.3,41.2,29.91,North,353,0.0,0.0,92,0.00,,---,0.08,VWS V14.01,2013-02-25 15:10:00,
2013-02-25 07:15:00,43.3,41.2,29.91,ESE,109,0.0,2.2,92,0.00,,---,0.08,VWS V14.01,2013-02-25 15:15:00,
2013-02-25 07:20:00,43.3,40.9,29.91,ESE,104,0.0,0.0,91,0.00,,---,0.08,VWS V14.01,2013-02-25 15:20:00,
2013-02-25 07:25:00,43.3,40.9,29.91,ESE,104,0.0,0.0,91,0.00,,---,0.08,VWS V14.01,2013-02-25 15:25:00,
2013-02-25 07:30:00,43.3,40.9,29.91,NNE,29,0.0,3.1,91,0.00,,---,0.08,VWS V14.01,2013-02-25 15:30:00,
2013-02-25 07:35:00,43.3,40.9,29.91,SSW,207,2.7,2.7,91,0.00,,---,0.08,VWS V14.01,2013-02-25 15:35:00,
2013-02-25 07:40:00,43.3,40.9,29.91,West,265,0.0,0.0,91,0.00,,---,0.08,VWS V14.01,2013-02-25 15:40:00,
2013-02-25 07:45:00,43.3,40.9,29.91,SW,223,5.4,5.4,91,0.00,,---,0.08,VWS V14.01,2013-02-25 15:45:00,
2013-02-25 07:50:00,43.5,41.1,29.91,WSW,237,0.0,0.0,91,0.00,,---,0.08,VWS V14.01,2013-02-25 15:50:00,
2013-02-25 07:55:00,43.5,41.1,29.91,West,265,6.3,6.3,91,0.00,,---,0.08,VWS V14.01,2013-02-25 15:55:00,
2013-02-25 08:00:00,43.5,41.1,29.91,WSW,239,5.8,5.8,91,0.00,,---,0.08,VWS V14.01,2013-02-25 16:00:00,
2013-02-25 08:05:00,43.5,41.1,29.91,West,278,0.0,0.0,91,0.00,,---,0.08,VWS V14.01,2013-02-25 16:05:00,
2013-02-25 08:10:00,43.5,41.1,29.91,SW,235,0.0,0.0,91,0.00,,---,0.08,VWS V14.01,2013-02-25 16:10:00,
2013-02-25 08:15:00,43.5,41.1,29.91,SSW,198,0.0,0.0,91,0.00,,---,0.08,VWS V14.01,2013-02-25 16:15:00,
2013-02-25 08:20:00,43.5,41.1,29.93,South,173,7.6,7.6,91,0.00,,---,0.08,VWS V14.01,2013-02-25 16:20:00,
2013-02-25 08:25:00,43.5,41.1,29.93,SE,126,0.0,5.4,91,0.00,,---,0.08,VWS V14.01,2013-02-25 16:25:00,
2013-02-25 08:30:00,43.3,40.6,29.93,SSW,192,3.1,4.0,90,0.00,,---,0.08,VWS V14.01,2013-02-25 16:30:00,
2013-02-25 08:35:00,43.5,40.8,29.93,South,189,0.0,3.1,90,0.00,,---,0.08,VWS V14.01,2013-02-25 16:35:00,
2013-02-25 08:40:00,43.3,40.6,29.93,NW,306,3.6,3.6,90,0.00,,---,0.08,VWS V14.01,2013-02-25 16:40:00,
2013-02-25 08:45:00,43.3,40.6,29.93,West,265,0.0,0.0,90,0.00,,---,0.08,VWS V14.01,2013-02-25 16:45:00,
2013-02-25 08:50:00,43.3,40.6,29.93,WNW,289,3.6,3.6,90,0.00,,---,0.08,VWS V14.01,2013-02-25 16:50:00,
2013-02-25 08:55:00,43.3,40.6,29.93,WSW,237,4.9,4.9,90,0.00,,---,0.08,VWS V14.01,2013-02-25 16:55:00,
2013-02-25 08:59:00,43.3,40.6,29.93,WSW,239,0.0,0.0,90,0.00,,---,0.08,VWS V14.01,2013-02-25 16:59:00,
2013-02-25 09:04:00,43.3,40.6,29.96,WSW,245,4.5,4.5,90,0.00,,---,0.08,VWS V14.01,2013-02-25 17:04:00,
2013-02-25 09:09:00,43.5,40.8,29.96,WSW,245,4.5,4.5,90,0.00,,---,0.08,VWS V14.01,2013-02-25 17:09:00,
2013-02-25 09:14:00,43.5,40.8,29.96,West,259,3.1,6.3,90,0.00,,---,0.08,VWS V14.01,2013-02-25 17:14:00,
2013-02-25 09:19:00,43.5,40.8,29.96,SSE,154,3.1,3.1,90,0.00,,---,0.08,VWS V14.01,2013-02-25 17:19:00,
2013-02-25 09:24:00,43.5,40.8,29.96,SSE,154,3.1,3.1,90,0.00,,---,0.08,VWS V14.01,2013-02-25 17:24:00,
2013-02-25 09:29:00,43.5,40.8,29.96,SSE,158,2.7,2.7,90,0.00,,---,0.08,VWS V14.01,2013-02-25 17:29:00,
2013-02-25 09:34:00,43.7,41.0,29.96,SW,235,0.0,0.0,90,0.00,,---,0.08,VWS V14.01,2013-02-25 17:34:00,
2013-02-25 09:39:00,43.7,41.0,29.96,ESE,112,4.9,4.9,90,0.00,,---,0.08,VWS V14.01,2013-02-25 17:39:00,
2013-02-25 09:44:00,43.7,41.0,29.96,SE,135,4.0,4.0,90,0.00,,---,0.08,VWS V14.01,2013-02-25 17:44:00,
2013-02-25 09:49:00,43.9,41.1,29.96,WNW,287,5.8,5.8,90,0.00,,---,0.08,VWS V14.01,2013-02-25 17:49:00,
2013-02-25 09:54:00,44.1,41.3,29.96,WSW,241,4.0,4.0,90,0.00,,---,0.08,VWS V14.01,2013-02-25 17:54:00,
2013-02-25 09:59:00,44.1,41.3,29.96,WSW,241,4.0,4.0,90,0.00,,---,0.08,VWS V14.01,2013-02-25 17:59:00,
2013-02-25 10:04:00,44.1,41.3,29.96,West,279,5.4,5.4,90,0.00,,---,0.08,VWS V14.01,2013-02-25 18:04:00,
2013-02-25 10:09:00,44.2,41.5,29.96,WSW,246,0.0,0.0,90,0.00,,---,0.08,VWS V14.01,2013-02-25 18:09:00,
2013-02-25 10:14:00,44.2,41.2,29.96,SSW,195,5.4,5.4,89,0.00,,---,0.08,VWS V14.01,2013-02-25 18:14:00,
2013-02-25 10:19:00,44.4,41.4,29.96,SSW,195,5.4,5.4,89,0.00,,---,0.08,VWS V14.01,2013-02-25 18:19:00,
2013-02-25 10:24:00,44.4,41.4,29.96,South,176,0.0,0.0,89,0.00,,---,0.08,VWS V14.01,2013-02-25 18:24:00,
2013-02-25 10:29:00,44.6,41.6,29.96,SSW,205,2.7,2.7,89,0.00,,---,0.08,VWS V14.01,2013-02-25 18:29:00,
2013-02-25 10:34:00,44.6,41.6,29.96,SW,226,0.0,6.3,89,0.00,,---,0.08,VWS V14.01,2013-02-25 18:34:00,
2013-02-25 10:39:00,44.6,41.6,29.96,SSW,209,5.8,5.8,89,0.00,,---,0.08,VWS V14.01,2013-02-25 18:39:00,
2013-02-25 10:44:00,44.8,41.7,29.96,WSW,241,2.7,2.7,89,0.00,,---,0.08,VWS V14.01,2013-02-25 18:44:00,
2013-02-25 10:49:00,44.8,41.7,29.96,WSW,241,2.7,2.7,89,0.00,,---,0.08,VWS V14.01,2013-02-25 18:49:00,
2013-02-25 10:54:00,44.8,41.7,29.96,WSW,241,2.7,2.7,89,0.00,,---,0.08,VWS V14.01,2013-02-25 18:54:00,
2013-02-25 10:59:00,44.8,41.5,29.96,SE,138,6.3,6.3,88,0.00,,---,0.08,VWS V14.01,2013-02-25 18:59:00,
2013-02-25 11:04:00,44.8,41.5,29.99,SSW,210,0.0,0.0,88,0.00,,---,0.08,VWS V14.01,2013-02-25 19:04:00,
2013-02-25 11:09:00,45.0,41.6,29.99,SW,222,0.0,0.0,88,0.00,,---,0.08,VWS V14.01,2013-02-25 19:09:00,
2013-02-25 11:14:00,45.0,41.6,29.99,SSW,196,5.4,8.1,88,0.00,,---,0.08,VWS V14.01,2013-02-25 19:14:00,
2013-02-25 11:19:00,45.1,41.5,29.99,SSW,196,5.4,5.4,87,0.00,,---,0.08,VWS V14.01,2013-02-25 19:19:00,
2013-02-25 11:24:00,45.3,41.7,29.99,SSW,213,0.0,0.0,87,0.00,,---,0.08,VWS V14.01,2013-02-25 19:24:00,
2013-02-25 11:29:00,45.3,41.7,29.99,West,260,0.0,0.0,87,0.00,,---,0.08,VWS V14.01,2013-02-25 19:29:00,
2013-02-25 11:34:00,45.3,41.7,29.99,West,270,0.0,0.0,87,0.00,,---,0.08,VWS V14.01,2013-02-25 19:34:00,
2013-02-25 11:39:00,45.3,41.7,29.99,NW,312,0.0,0.0,87,0.00,,---,0.08,VWS V14.01,2013-02-25 19:39:00,
2013-02-25 11:44:00,45.5,41.9,29.99,SW,224,3.1,3.1,87,0.00,,---,0.08,VWS V14.01,2013-02-25 19:44:00,
2013-02-25 11:49:00,45.5,41.9,29.99,ESE,103,0.0,0.0,87,0.00,,---,0.08,VWS V14.01,2013-02-25 19:49:00,
2013-02-25 11:54:00,45.5,41.9,29.99,SW,225,0.0,3.1,87,0.00,,---,0.08,VWS V14.01,2013-02-25 19:54:00,
2013-02-25 11:59:00,45.5,41.9,29.99,West,270,0.0,0.0,87,0.00,,---,0.08,VWS V14.01,2013-02-25 19:59:00,
2013-02-25 12:04:00,45.7,41.7,30.02,West,270,0.0,0.0,86,0.00,,---,0.08,VWS V14.01,2013-02-25 20:04:00,
2013-02-25 12:09:00,45.9,41.9,30.02,SW,219,3.6,3.6,86,0.00,,---,0.08,VWS V14.01,2013-02-25 20:09:00,
2013-02-25 12:14:00,45.9,41.9,30.02,SSE,157,0.0,2.7,86,0.00,,---,0.08,VWS V14.01,2013-02-25 20:14:00,
2013-02-25 12:19:00,46.2,42.3,30.02,SW,236,0.0,0.0,86,0.00,,---,0.08,VWS V14.01,2013-02-25 20:19:00,
2013-02-25 12:24:00,46.2,42.3,30.02,WNW,284,0.0,0.0,86,0.00,,---,0.08,VWS V14.01,2013-02-25 20:24:00,
2013-02-25 12:29:00,46.8,42.5,30.02,WNW,290,5.4,5.4,85,0.00,,---,0.08,VWS V14.01,2013-02-25 20:29:00,
2013-02-25 12:34:00,47.5,42.6,30.02,West,279,4.9,6.3,83,0.00,,---,0.08,VWS V14.01,2013-02-25 20:34:00,
2013-02-25 12:39:00,47.8,42.6,30.02,SSW,207,5.8,5.8,82,0.00,,---,0.08,VWS V14.01,2013-02-25 20:39:00,
2013-02-25 12:44:00,47.8,42.6,30.02,NNW,337,0.0,0.0,82,0.00,,---,0.08,VWS V14.01,2013-02-25 20:44:00,
2013-02-25 12:49:00,48.6,42.7,30.02,WNW,301,0.0,0.0,80,0.00,,---,0.08,VWS V14.01,2013-02-25 20:49:00,
2013-02-25 12:54:00,48.7,42.5,30.02,NW,311,2.7,2.7,79,0.00,,---,0.08,VWS V14.01,2013-02-25 20:54:00,
2013-02-25 12:59:00,48.7,42.5,30.02,West,261,0.0,0.0,79,0.00,,---,0.08,VWS V14.01,2013-02-25 20:59:00,
2013-02-25 13:04:00,48.9,42.4,30.02,West,266,8.1,8.1,78,0.00,,---,0.08,VWS V14.01,2013-02-25 21:04:00,
2013-02-25 13:09:00,49.1,42.5,30.02,SW,221,3.6,6.3,78,0.00,,---,0.08,VWS V14.01,2013-02-25 21:09:00,
2013-02-25 13:14:00,49.3,41.4,30.02,West,278,4.9,4.9,74,0.00,,---,0.08,VWS V14.01,2013-02-25 21:14:00,
2013-02-25 13:19:00,49.5,41.2,30.02,SW,236,0.0,0.0,73,0.00,,---,0.08,VWS V14.01,2013-02-25 21:19:00,
2013-02-25 13:24:00,49.5,41.2,30.02,SW,227,5.8,5.8,73,0.00,,---,0.08,VWS V14.01,2013-02-25 21:24:00,
2013-02-25 13:29:00,49.6,41.0,30.02,ENE,78,2.2,2.2,72,0.00,,---,0.08,VWS V14.01,2013-02-25 21:29:00,
2013-02-25 13:34:00,49.6,41.0,30.02,SW,231,5.8,5.8,72,0.00,,---,0.08,VWS V14.01,2013-02-25 21:34:00,
2013-02-25 13:39:00,49.6,41.0,30.02,SSW,212,2.7,2.7,72,0.00,,---,0.08,VWS V14.01,2013-02-25 21:39:00,
2013-02-25 13:44:00,49.6,40.6,30.02,West,271,5.8,5.8,71,0.00,,---,0.08,VWS V14.01,2013-02-25 21:44:00,
2013-02-25 13:49:00,49.6,40.6,30.02,WSW,245,3.1,3.1,71,0.00,,---,0.08,VWS V14.01,2013-02-25 21:49:00,
2013-02-25 13:54:00,49.6,40.3,30.02,SSW,197,0.0,2.2,70,0.00,,---,0.08,VWS V14.01,2013-02-25 21:54:00,
2013-02-25 13:59:00,49.6,40.3,30.02,South,187,6.7,6.7,70,0.00,,---,0.08,VWS V14.01,2013-02-25 21:59:00,
2013-02-25 14:04:00,50.2,40.4,30.02,West,261,0.0,0.0,69,0.00,,---,0.08,VWS V14.01,2013-02-25 22:04:00,
2013-02-25 14:09:00,50.2,39.7,30.02,West,273,0.0,0.0,67,0.00,,---,0.08,VWS V14.01,2013-02-25 22:09:00,
2013-02-25 14:14:00,50.2,39.7,30.02,NW,314,3.6,3.6,67,0.00,,---,0.08,VWS V14.01,2013-02-25 22:14:00,
2013-02-25 14:19:00,50.5,38.0,30.02,WNW,284,5.8,5.8,62,0.00,,---,0.08,VWS V14.01,2013-02-25 22:19:00,
2013-02-25 14:24:00,50.5,38.0,30.02,WSW,250,5.4,5.4,62,0.00,,---,0.08,VWS V14.01,2013-02-25 22:24:00,
2013-02-25 14:29:00,50.4,37.4,30.02,West,274,5.8,5.8,61,0.00,,---,0.08,VWS V14.01,2013-02-25 22:29:00,
2013-02-25 14:34:00,50.2,36.4,30.02,WSW,244,5.8,5.8,59,0.00,,---,0.08,VWS V14.01,2013-02-25 22:34:00,
2013-02-25 14:39:00,50.2,36.8,30.05,West,263,3.1,3.1,60,0.00,,---,0.08,VWS V14.01,2013-02-25 22:39:00,
2013-02-25 14:44:00,50.0,36.7,30.05,WSW,247,3.1,3.1,60,0.00,,---,0.08,VWS V14.01,2013-02-25 22:44:00,
2013-02-25 14:49:00,49.8,36.9,30.05,SW,234,3.6,3.6,61,0.00,,---,0.08,VWS V14.01,2013-02-25 22:49:00,
2013-02-25 14:54:00,49.8,36.5,30.05,WSW,246,4.0,4.0,60,0.00,,---,0.08,VWS V14.01,2013-02-25 22:54:00,
2013-02-25 14:59:00,49.8,36.5,30.05,WNW,298,3.6,3.6,60,0.00,,---,0.08,VWS V14.01,2013-02-25 22:59:00,
2013-02-25 15:04:00,49.6,36.3,30.05,WSW,251,2.2,2.2,60,0.00,,---,0.08,VWS V14.01,2013-02-25 23:04:00,
2013-02-25 15:09:00,49.6,35.9,30.05,WNW,292,3.6,3.6,59,0.00,,---,0.08,VWS V14.01,2013-02-25 23:09:00,
2013-02-25 15:14:00,49.5,34.9,30.05,West,277,4.0,4.0,57,0.00,,---,0.08,VWS V14.01,2013-02-25 23:14:00,
2013-02-25 15:19:00,49.5,34.9,30.05,WSW,246,8.7,8.7,57,0.00,,---,0.08,VWS V14.01,2013-02-25 23:19:00,
2013-02-25 15:24:00,49.5,34.9,30.05,SW,214,4.0,4.0,57,0.00,,---,0.08,VWS V14.01,2013-02-25 23:24:00,
2013-02-25 15:29:00,48.9,33.5,30.05,WSW,238,8.1,8.1,55,0.00,,---,0.08,VWS V14.01,2013-02-25 23:29:00,
2013-02-25 15:34:00,48.9,33.5,30.08,SSW,205,2.7,6.3,55,0.00,,---,0.08,VWS V14.01,2013-02-25 23:34:00,
2013-02-25 15:39:00,48.0,34.0,30.08,SW,234,0.0,0.0,58,0.00,,---,0.08,VWS V14.01,2013-02-25 23:39:00,
2013-02-25 15:44:00,47.8,33.8,30.08,West,275,3.6,3.6,58,0.00,,---,0.08,VWS V14.01,2013-02-25 23:44:00,
2013-02-25 15:49:00,47.8,33.8,30.05,WSW,245,0.0,0.0,58,0.00,,---,0.08,VWS V14.01,2013-02-25 23:49:00,
2013-02-25 15:54:00,47.5,33.9,30.05,WSW,245,0.0,0.0,59,0.00,,---,0.08,VWS V14.01,2013-02-25 23:54:00,
2013-02-25 15:59:00,47.5,33.9,30.05,WSW,245,0.0,0.0,59,0.00,,---,0.08,VWS V14.01,2013-02-25 23:59:00,
2013-02-25 16:04:00,47.5,34.3,30.08,WSW,245,0.0,0.0,60,0.00,,---,0.08,VWS V14.01,2013-02-26 00:04:00,
2013-02-25 16:09:00,47.5,34.3,30.08,WSW,245,0.0,0.0,60,0.00,,---,0.08,VWS V14.01,2013-02-26 00:09:00,
2013-02-25 16:14:00,47.5,34.3,30.08,WSW,245,0.0,0.0,60,0.00,,---,0.08,VWS V14.01,2013-02-26 00:14:00,
2013-02-25 16:19:00,47.7,34.9,30.08,WSW,245,0.0,0.0,61,0.00,,---,0.08,VWS V14.01,2013-02-26 00:19:00,
2013-02-25 16:24:00,47.7,34.9,30.08,WSW,245,0.0,0.0,61,0.00,,---,0.08,VWS V14.01,2013-02-26 00:24:00,
2013-02-25 16:29:00,47.7,35.3,30.08,East,86,0.0,0.0,62,0.00,,---,0.08,VWS V14.01,2013-02-26 00:29:00,
2013-02-25 16:34:00,47.7,35.3,30.08,ENE,74,3.6,3.6,62,0.00,,---,0.08,VWS V14.01,2013-02-26 00:34:00,
2013-02-25 16:39:00,47.7,35.3,30.08,East,86,0.0,0.0,62,0.00,,---,0.08,VWS V14.01,2013-02-26 00:39:00,
2013-02-25 16:44:00,47.7,35.3,30.08,East,82,0.0,0.0,62,0.00,,---,0.08,VWS V14.01,2013-02-26 00:44:00,
2013-02-25 16:49:00,47.7,35.3,30.08,East,82,0.0,0.0,62,0.00,,---,0.08,VWS V14.01,2013-02-26 00:49:00,
2013-02-25 16:54:00,47.7,35.7,30.08,East,90,0.0,0.0,63,0.00,,---,0.08,VWS V14.01,2013-02-26 00:54:00,
2013-02-25 16:59:00,47.7,35.7,30.08,ENE,69,4.0,4.0,63,0.00,,---,0.08,VWS V14.01,2013-02-26 00:59:00,
2013-02-25 17:04:00,47.7,35.7,30.11,ENE,70,2.7,2.7,63,0.00,,---,0.08,VWS V14.01,2013-02-26 01:04:00,
2013-02-25 17:09:00,47.5,35.9,30.11,ENE,75,0.0,0.0,64,0.00,,---,0.08,VWS V14.01,2013-02-26 01:09:00,
2013-02-25 17:14:00,47.5,35.9,30.11,ENE,75,0.0,0.0,64,0.00,,---,0.08,VWS V14.01,2013-02-26 01:14:00,
2013-02-25 17:19:00,47.5,35.9,30.11,NE,39,0.0,2.2,64,0.00,,---,0.08,VWS V14.01,2013-02-26 01:19:00,
2013-02-25 17:24:00,47.5,35.9,30.11,ENE,73,0.0,0.0,64,0.00,,---,0.08,VWS V14.01,2013-02-26 01:24:00,
2013-02-25 17:29:00,47.5,35.9,30.11,ENE,73,0.0,0.0,64,0.00,,---,0.08,VWS V14.01,2013-02-26 01:29:00,
2013-02-25 17:34:00,47.3,36.2,30.11,West,271,3.1,3.1,65,0.00,,---,0.08,VWS V14.01,2013-02-26 01:34:00,
2013-02-25 17:39:00,47.3,36.2,30.11,West,271,3.1,3.1,65,0.00,,---,0.08,VWS V14.01,2013-02-26 01:39:00,
2013-02-25 17:44:00,47.1,35.6,30.11,WSW,246,0.0,0.0,64,0.00,,---,0.08,VWS V14.01,2013-02-26 01:44:00,
2013-02-25 17:49:00,47.1,35.2,30.11,SSW,209,0.0,2.7,63,0.00,,---,0.08,VWS V14.01,2013-02-26 01:49:00,
2013-02-25 17:54:00,46.9,35.0,30.11,SW,233,0.0,0.0,63,0.00,,---,0.08,VWS V14.01,2013-02-26 01:54:00,
2013-02-25 17:59:00,46.9,35.0,30.11,SW,233,0.0,0.0,63,0.00,,---,0.08,VWS V14.01,2013-02-26 01:59:00,
2013-02-25 18:04:00,46.8,34.8,30.14,South,177,0.0,0.0,63,0.00,,---,0.08,VWS V14.01,2013-02-26 02:04:00,
2013-02-25 18:09:00,46.6,34.7,30.14,SW,232,0.0,0.0,63,0.00,,---,0.08,VWS V14.01,2013-02-26 02:09:00,
2013-02-25 18:14:00,46.4,34.5,30.14,SW,232,0.0,0.0,63,0.00,,---,0.08,VWS V14.01,2013-02-26 02:14:00,
2013-02-25 18:19:00,46.2,34.3,30.14,WSW,242,0.0,0.0,63,0.00,,---,0.08,VWS V14.01,2013-02-26 02:19:00,
2013-02-25 18:24:00,46.0,34.2,30.14,WSW,243,0.0,0.0,63,0.00,,---,0.08,VWS V14.01,2013-02-26 02:24:00,
2013-02-25 18:29:00,45.9,34.0,30.14,WNW,287,4.0,4.0,63,0.00,,---,0.08,VWS V14.01,2013-02-26 02:29:00,
2013-02-25 18:34:00,45.9,34.0,30.14,WSW,249,3.1,4.0,63,0.00,,---,0.08,VWS V14.01,2013-02-26 02:34:00,
2013-02-25 18:39:00,45.3,33.9,30.14,WSW,246,0.0,0.0,64,0.00,,---,0.08,VWS V14.01,2013-02-26 02:39:00,
2013-02-25 18:44:00,45.3,33.9,30.14,WSW,255,3.1,3.1,64,0.00,,---,0.08,VWS V14.01,2013-02-26 02:44:00,
2013-02-25 18:49:00,45.0,33.5,30.14,WSW,255,3.1,3.1,64,0.00,,---,0.08,VWS V14.01,2013-02-26 02:49:00,
2013-02-25 18:54:00,44.8,33.8,30.14,SW,232,0.0,0.0,65,0.00,,---,0.08,VWS V14.01,2013-02-26 02:54:00,
2013-02-25 18:59:00,44.8,33.8,30.14,SSW,210,2.7,2.7,65,0.00,,---,0.08,VWS V14.01,2013-02-26 02:59:00,
2013-02-25 19:04:00,44.6,33.6,30.17,SSW,203,2.2,2.2,65,0.00,,---,0.08,VWS V14.01,2013-02-26 03:04:00,
2013-02-25 19:09:00,44.6,33.6,30.17,WSW,245,3.1,3.1,65,0.00,,---,0.08,VWS V14.01,2013-02-26 03:09:00,
2013-02-25 19:14:00,44.4,33.8,30.17,SW,215,0.0,0.0,66,0.00,,---,0.08,VWS V14.01,2013-02-26 03:14:00,
2013-02-25 19:19:00,44.2,33.6,30.17,WSW,247,0.0,0.0,66,0.00,,---,0.08,VWS V14.01,2013-02-26 03:19:00,
2013-02-25 19:24:00,44.1,33.8,30.17,WSW,247,0.0,0.0,67,0.00,,---,0.08,VWS V14.01,2013-02-26 03:24:00,
2013-02-25 19:29:00,44.1,33.8,30.17,WSW,253,3.1,3.1,67,0.00,,---,0.08,VWS V14.01,2013-02-26 03:29:00,
2013-02-25 19:34:00,44.1,33.8,30.17,WSW,247,0.0,0.0,67,0.00,,---,0.08,VWS V14.01,2013-02-26 03:34:00,
2013-02-25 19:39:00,43.7,33.5,30.17,SSE,150,4.0,4.0,67,0.00,,---,0.00,VWS V14.01,2013-02-26 03:39:00,
2013-02-25 19:44:00,43.7,33.5,30.17,South,174,0.0,0.0,67,0.00,,---,0.08,VWS V14.01,2013-02-26 03:44:00,
2013-02-25 19:49:00,43.5,33.3,30.17,South,174,0.0,0.0,67,0.00,,---,0.08,VWS V14.01,2013-02-26 03:49:00,
2013-02-25 19:54:00,43.3,33.5,30.17,WSW,240,0.0,0.0,68,0.00,,---,0.08,VWS V14.01,2013-02-26 03:54:00,
2013-02-25 19:59:00,43.3,33.5,30.17,WSW,240,0.0,0.0,68,0.00,,---,0.08,VWS V14.01,2013-02-26 03:59:00,
2013-02-25 20:04:00,43.3,33.5,30.17,WSW,240,0.0,0.0,68,0.00,,---,0.08,VWS V14.01,2013-02-26 04:04:00,
2013-02-25 20:09:00,43.2,33.3,30.17,WSW,240,4.9,4.9,68,0.00,,---,0.08,VWS V14.01,2013-02-26 04:09:00,
2013-02-25 20:14:00,43.2,33.7,30.17,SSE,152,2.2,2.2,69,0.00,,---,0.08,VWS V14.01,2013-02-26 04:14:00,
2013-02-25 20:19:00,43.0,33.5,30.20,SE,143,0.0,0.0,69,0.00,,---,0.08,VWS V14.01,2013-02-26 04:19:00,
2013-02-25 20:24:00,43.0,33.5,30.20,SW,216,0.0,0.0,69,0.00,,---,0.08,VWS V14.01,2013-02-26 04:24:00,
2013-02-25 20:29:00,43.0,33.9,30.20,SW,216,0.0,0.0,70,0.00,,---,0.08,VWS V14.01,2013-02-26 04:29:00,
2013-02-25 20:34:00,43.0,33.9,30.20,WSW,249,0.0,0.0,70,0.00,,---,0.08,VWS V14.01,2013-02-26 04:34:00,
2013-02-25 20:39:00,43.0,33.9,30.20,SSW,196,0.0,0.0,70,0.00,,---,0.08,VWS V14.01,2013-02-26 04:39:00,
2013-02-25 20:44:00,43.0,33.9,30.20,SSW,196,0.0,0.0,70,0.00,,---,0.08,VWS V14.01,2013-02-26 04:44:00,
2013-02-25 20:49:00,43.0,33.9,30.20,SSW,209,0.0,0.0,70,0.00,,---,0.08,VWS V14.01,2013-02-26 04:49:00,
2013-02-25 20:54:00,43.0,34.2,30.20,WSW,237,2.2,2.2,71,0.00,,---,0.08,VWS V14.01,2013-02-26 04:54:00,
2013-02-25 20:59:00,43.0,34.2,30.20,WSW,237,0.0,0.0,71,0.00,,---,0.08,VWS V14.01,2013-02-26 04:59:00,
2013-02-25 21:00:00,43.0,34.2,30.20,WSW,237,0.0,0.0,71,0.00,,---,0.08,VWS V14.01,2013-02-26 05:00:00,
2013-02-25 21:05:00,43.0,34.2,30.20,WSW,237,0.0,0.0,71,0.00,,---,0.08,VWS V14.01,2013-02-26 05:05:00,
2013-02-25 21:10:00,42.8,34.1,30.20,WSW,237,0.0,0.0,71,0.00,,---,0.08,VWS V14.01,2013-02-26 05:10:00,
2013-02-25 21:15:00,42.8,34.1,30.20,WSW,237,0.0,0.0,71,0.00,,---,0.08,VWS V14.01,2013-02-26 05:15:00,
2013-02-25 21:20:00,42.4,33.7,30.23,WSW,237,0.0,0.0,71,0.00,,---,0.08,VWS V14.01,2013-02-26 05:20:00,
2013-02-25 21:25:00,42.4,33.7,30.23,WSW,237,0.0,0.0,71,0.00,,---,0.08,VWS V14.01,2013-02-26 05:25:00,
2013-02-25 21:30:00,42.3,33.5,30.23,WSW,237,0.0,0.0,71,0.00,,---,0.08,VWS V14.01,2013-02-26 05:30:00,
2013-02-25 21:35:00,42.3,33.5,30.23,WSW,237,0.0,0.0,71,0.00,,---,0.08,VWS V14.01,2013-02-26 05:35:00,
2013-02-25 21:40:00,41.9,33.2,30.23,WSW,237,0.0,0.0,71,0.00,,---,0.08,VWS V14.01,2013-02-26 05:40:00,
2013-02-25 21:45:00,41.9,33.2,30.23,SW,215,2.2,2.2,71,0.00,,---,0.08,VWS V14.01,2013-02-26 05:45:00,
2013-02-25 21:50:00,41.5,32.8,30.23,SW,215,2.2,2.2,71,0.00,,---,0.08,VWS V14.01,2013-02-26 05:50:00,
2013-02-25 21:55:00,41.4,32.7,30.23,SW,215,0.0,0.0,71,0.00,,---,0.08,VWS V14.01,2013-02-26 05:55:00,
2013-02-25 22:00:00,41.4,33.0,30.23,SW,215,0.0,0.0,72,0.00,,---,0.08,VWS V14.01,2013-02-26 06:00:00,
2013-02-25 22:05:00,41.2,32.8,30.23,SW,215,0.0,0.0,72,0.00,,---,0.08,VWS V14.01,2013-02-26 06:05:00,
2013-02-25 22:10:00,41.2,32.8,30.23,SW,215,0.0,0.0,72,0.00,,---,0.08,VWS V14.01,2013-02-26 06:10:00,
2013-02-25 22:15:00,41.0,32.7,30.23,SW,215,0.0,0.0,72,0.00,,---,0.08,VWS V14.01,2013-02-26 06:15:00,
2013-02-25 22:20:00,40.6,32.3,30.23,SW,215,0.0,0.0,72,0.00,,---,0.08,VWS V14.01,2013-02-26 06:20:00,
2013-02-25 22:25:00,40.6,32.3,30.23,SW,215,0.0,0.0,72,0.00,,---,0.08,VWS V14.01,2013-02-26 06:25:00,
2013-02-25 22:30:00,40.3,32.0,30.23,SW,215,0.0,0.0,72,0.00,,---,0.08,VWS V14.01,2013-02-26 06:30:00,
2013-02-25 22:35:00,40.3,32.3,30.23,SW,215,0.0,0.0,73,0.00,,---,0.08,VWS V14.01,2013-02-26 06:35:00,
2013-02-25 22:40:00,39.7,31.8,30.23,SW,234,0.0,0.0,73,0.00,,---,0.08,VWS V14.01,2013-02-26 06:40:00,
2013-02-25 22:45:00,39.7,31.8,30.23,SW,234,0.0,0.0,73,0.00,,---,0.08,VWS V14.01,2013-02-26 06:45:00,
2013-02-25 22:50:00,39.7,31.8,30.23,SW,234,0.0,0.0,73,0.00,,---,0.08,VWS V14.01,2013-02-26 06:50:00,
2013-02-25 22:55:00,39.6,32.0,30.23,SW,234,0.0,0.0,74,0.00,,---,0.08,VWS V14.01,2013-02-26 06:55:00,
2013-02-25 23:00:00,39.4,31.8,30.23,SW,234,0.0,0.0,74,0.00,,---,0.08,VWS V14.01,2013-02-26 07:00:00,
2013-02-25 23:05:00,39.2,31.6,30.26,SW,234,0.0,0.0,74,0.00,,---,0.08,VWS V14.01,2013-02-26 07:05:00,
2013-02-25 23:10:00,39.2,31.6,30.26,SW,234,0.0,0.0,74,0.00,,---,0.08,VWS V14.01,2013-02-26 07:10:00,
2013-02-25 23:15:00,39.0,31.5,30.26,SW,234,0.0,0.0,74,0.00,,---,0.08,VWS V14.01,2013-02-26 07:15:00,
2013-02-25 23:20:00,38.8,31.6,30.26,SW,234,0.0,0.0,75,0.00,,---,0.08,VWS V14.01,2013-02-26 07:20:00,
2013-02-25 23:25:00,38.7,31.4,30.26,SW,234,0.0,0.0,75,0.00,,---,0.08,VWS V14.01,2013-02-26 07:25:00,
2013-02-25 23:30:00,38.5,31.3,30.26,SW,234,0.0,0.0,75,0.00,,---,0.08,VWS V14.01,2013-02-26 07:30:00,
2013-02-25 23:35:00,38.3,31.1,30.26,SW,234,0.0,0.0,75,0.00,,---,0.08,VWS V14.01,2013-02-26 07:35:00,
2013-02-25 23:40:00,38.1,30.9,30.26,SW,234,0.0,0.0,75,0.00,,---,0.08,VWS V14.01,2013-02-26 07:40:00,
2013-02-25 23:45:00,38.1,30.9,30.26,SW,234,0.0,0.0,75,0.00,,---,0.08,VWS V14.01,2013-02-26 07:45:00,
2013-02-25 23:50:00,37.9,30.7,30.26,SW,233,0.0,0.0,75,0.00,,---,0.08,VWS V14.01,2013-02-26 07:50:00,
2013-02-25 23:55:00,37.8,30.9,30.26,SW,234,0.0,0.0,76,0.00,,---,0.08,VWS V14.01,2013-02-26 07:55:00,